When you browse on this site, cookies collect data to enhance your experience and personalize the content and advertising you see.
Visit our Privacy Policy to learn more. By continuing to use the site, you agree to this use of cookies and data.
  • In Hungary
  • List of Countries
  • For 7 days
  • Water Temperature
  • Weather Map
  • News
  • Weather Widgets
  • user-avatar
    Login

    Hourly Weather Guarne

    Today, 22 August, Thursday

    Time Temperature Precipitation Wind Pressure Humidity
    00:00 +13°C° 0 mm 1 mps 584 mmHg 92%
    01:00 +13°C° 0 mm 1 mps 584 mmHg 92%
    02:00 +12°C° 0 mm 1 mps 584 mmHg 93%
    03:00 +12°C° 0 mm 1 mps 584 mmHg 93%
    04:00 +12°C° 0 mm 1 mps 584 mmHg 93%
    05:00 +12°C° 0 mm 0 mps 585 mmHg 92%
    06:00 +12°C° 0 mm 0 mps 585 mmHg 90%
    07:00 +13°C° 0 mm 0 mps 585 mmHg 89%
    08:00 +16°C° 0 mm 1 mps 587 mmHg 78%
    09:00 +19°C° 0 mm 1 mps 588 mmHg 68%
    10:00 +22°C° 0 mm 1 mps 589 mmHg 57%
    11:00 +23°C° 0 mm 1 mps 589 mmHg 51%
    12:00 +25°C° 0 mm 2 mps 589 mmHg 44%
    13:00 +26°C° 0 mm 2 mps 589 mmHg 38%
    14:00 +26°C° 0 mm 2 mps 588 mmHg 39%
    15:00 +25°C° 0 mm 2 mps 587 mmHg 40%
    16:00 +25°C° 0 mm 2 mps 587 mmHg 42%
    17:00 +21°C° 0 mm 2 mps 586 mmHg 57%
    18:00 +19°C° 0 mm 1 mps 585 mmHg 72%
    19:00 +15°C° 0 mm 1 mps 584 mmHg 88%
    20:00 +14°C° 0 mm 1 mps 584 mmHg 89%
    21:00 +14°C° 0 mm 1 mps 584 mmHg 91%
    22:00 +13°C° 0 mm 1 mps 585 mmHg 93%
    23:00 +13°C° 0 mm 1 mps 585 mmHg 93%

    Tomorrow, 23 August, Friday

    Time Temperature Precipitation Wind Pressure Humidity
    00:00 +13°C° 0 mm 1 mps 584 mmHg 93%
    01:00 +12°C° 0 mm 0 mps 584 mmHg 93%
    02:00 +11°C° 0 mm 0 mps 584 mmHg 93%
    03:00 +11°C° 0 mm 0 mps 584 mmHg 93%
    04:00 +11°C° 0 mm 0 mps 583 mmHg 93%
    05:00 +11°C° 0 mm 0 mps 584 mmHg 91%
    06:00 +12°C° 0 mm 0 mps 584 mmHg 89%
    07:00 +13°C° 0 mm 0 mps 585 mmHg 87%
    08:00 +18°C° 0 mm 1 mps 586 mmHg 75%
    09:00 +20°C° 0 mm 1 mps 588 mmHg 62%
    10:00 +23°C° 0 mm 1 mps 589 mmHg 50%
    11:00 +24°C° 0 mm 2 mps 589 mmHg 46%
    12:00 +25°C° 0 mm 2 mps 588 mmHg 41%
    13:00 +26°C° 0 mm 2 mps 588 mmHg 37%
    14:00 +26°C° 0 mm 2 mps 587 mmHg 38%
    15:00 +25°C° 0 mm 2 mps 587 mmHg 39%
    16:00 +25°C° 0 mm 2 mps 586 mmHg 41%
    17:00 +22°C° 0 mm 1 mps 585 mmHg 54%
    18:00 +19°C° 0 mm 1 mps 585 mmHg 68%
    19:00 +15°C° 0 mm 1 mps 584 mmHg 81%
    20:00 +14°C° 0.1 mm 1 mps 584 mmHg 84%
    21:00 +14°C° 0.1 mm 1 mps 584 mmHg 86%
    22:00 +13°C° 0.1 mm 1 mps 584 mmHg 89%
    23:00 +13°C° 0 mm 1 mps 584 mmHg 90%

    Day after tomorrow, 24 August, Saturday

    Time Temperature Precipitation Wind Pressure Humidity
    00:00 +13°C° 0 mm 1 mps 584 mmHg 91%
    01:00 +12°C° 0 mm 1 mps 583 mmHg 92%
    02:00 +12°C° 0 mm 1 mps 583 mmHg 93%
    03:00 +11°C° 0 mm 0 mps 583 mmHg 94%
    04:00 +11°C° 0 mm 0 mps 583 mmHg 95%
    05:00 +12°C° 0 mm 0 mps 584 mmHg 93%
    06:00 +13°C° 0 mm 0 mps 584 mmHg 91%
    07:00 +13°C° 0 mm 0 mps 585 mmHg 89%
    08:00 +18°C° 0 mm 1 mps 586 mmHg 77%
    09:00 +20°C° 0 mm 1 mps 587 mmHg 66%
    10:00 +23°C° 0 mm 1 mps 589 mmHg 55%
    11:00 +24°C° 0.1 mm 1 mps 588 mmHg 51%
    12:00 +25°C° 0.1 mm 2 mps 588 mmHg 47%
    13:00 +26°C° 0.1 mm 2 mps 588 mmHg 44%
    14:00 +25°C° 0.2 mm 2 mps 587 mmHg 46%
    15:00 +25°C° 0.2 mm 2 mps 586 mmHg 49%
    16:00 +24°C° 0.2 mm 2 mps 586 mmHg 51%
    17:00 +21°C° 0.3 mm 1 mps 585 mmHg 64%
    18:00 +19°C° 0.3 mm 1 mps 584 mmHg 76%
    19:00 +15°C° 0.3 mm 1 mps 583 mmHg 89%
    20:00 +14°C° 0.3 mm 1 mps 584 mmHg 90%
    21:00 +14°C° 0.3 mm 1 mps 584 mmHg 92%
    22:00 +14°C° 0.3 mm 1 mps 585 mmHg 93%
    23:00 +13°C° 0.1 mm 1 mps 584 mmHg 94%

    25 August, Sunday

    Time Temperature Precipitation Wind Pressure Humidity
    00:00 +12°C° 0.1 mm 0 mps 584 mmHg 94%
    01:00 +12°C° 0.1 mm 0 mps 584 mmHg 95%
    02:00 +12°C° 0 mm 0 mps 584 mmHg 95%
    03:00 +12°C° 0 mm 0 mps 583 mmHg 95%
    04:00 +12°C° 0 mm 0 mps 583 mmHg 95%
    05:00 +12°C° 0 mm 0 mps 584 mmHg 94%
    06:00 +13°C° 0 mm 0 mps 584 mmHg 93%
    07:00 +13°C° 0 mm 0 mps 584 mmHg 92%
    08:00 +18°C° 0 mm 1 mps 586 mmHg 78%
    09:00 +21°C° 0 mm 1 mps 587 mmHg 64%
    10:00 +23°C° 0 mm 2 mps 588 mmHg 49%
    11:00 +24°C° 0 mm 2 mps 588 mmHg 46%
    12:00 +25°C° 0 mm 2 mps 588 mmHg 42%
    13:00 +26°C° 0 mm 2 mps 588 mmHg 38%
    14:00 +25°C° 0.1 mm 2 mps 587 mmHg 41%
    15:00 +25°C° 0.1 mm 2 mps 586 mmHg 44%
    16:00 +24°C° 0.1 mm 2 mps 585 mmHg 46%
    17:00 +21°C° 0.6 mm 1 mps 585 mmHg 60%
    18:00 +19°C° 0.6 mm 1 mps 584 mmHg 74%
    19:00 +14°C° 0.6 mm 0 mps 583 mmHg 87%
    20:00 +13°C° 0.2 mm 0 mps 583 mmHg 89%
    21:00 +14°C° 0.2 mm 1 mps 584 mmHg 90%
    22:00 +13°C° 0.2 mm 1 mps 584 mmHg 92%
    23:00 +12°C° 0 mm 0 mps 584 mmHg 92%

    26 August, Monday

    Time Temperature Precipitation Wind Pressure Humidity
    00:00 +12°C° 0 mm 0 mps 583 mmHg 93%
    01:00 +12°C° 0 mm 0 mps 583 mmHg 94%
    02:00 +12°C° 0 mm 0 mps 583 mmHg 94%
    03:00 +12°C° 0 mm 0 mps 583 mmHg 94%
    04:00 +12°C° 0 mm 0 mps 583 mmHg 94%
    05:00 +13°C° 0 mm 0 mps 584 mmHg 93%
    06:00 +13°C° 0 mm 0 mps 584 mmHg 92%
    07:00 +13°C° 0 mm 0 mps 585 mmHg 91%
    08:00 +15°C° 0.3 mm 0 mps 586 mmHg 83%
    09:00 +19°C° 0.3 mm 1 mps 587 mmHg 74%
    10:00 +21°C° 0.3 mm 1 mps 588 mmHg 66%
    11:00 +22°C° 1 mm 1 mps 587 mmHg 67%
    12:00 +22°C° 1 mm 1 mps 586 mmHg 69%
    13:00 +22°C° 1 mm 1 mps 586 mmHg 70%
    14:00 +22°C° 1 mm 1 mps 585 mmHg 73%
    15:00 +21°C° 1 mm 1 mps 585 mmHg 75%
    16:00 +21°C° 1 mm 1 mps 584 mmHg 77%
    17:00 +19°C° 0.7 mm 1 mps 584 mmHg 82%
    18:00 +16°C° 0.7 mm 1 mps 584 mmHg 88%
    19:00 +14°C° 0.7 mm 1 mps 583 mmHg 93%
    20:00 +14°C° 0.3 mm 1 mps 584 mmHg 94%
    21:00 +14°C° 0.3 mm 1 mps 584 mmHg 94%
    22:00 +14°C° 0.3 mm 1 mps 584 mmHg 95%
    23:00 +14°C° 0.8 mm 1 mps 584 mmHg 96%

    27 August, Tuesday

    Time Temperature Precipitation Wind Pressure Humidity
    00:00 +13°C° 0.8 mm 0 mps 584 mmHg 96%
    01:00 +13°C° 0.8 mm 0 mps 584 mmHg 97%
    02:00 +13°C° 0.8 mm 0 mps 584 mmHg 97%
    03:00 +12°C° 0.8 mm 0 mps 584 mmHg 97%
    04:00 +12°C° 0.8 mm 0 mps 584 mmHg 97%
    05:00 +13°C° 0.1 mm 0 mps 584 mmHg 97%
    06:00 +13°C° 0.1 mm 0 mps 584 mmHg 97%
    07:00 +14°C° 0.1 mm 1 mps 585 mmHg 96%
    08:00 +16°C° 0.2 mm 1 mps 586 mmHg 87%
    09:00 +19°C° 0.2 mm 1 mps 587 mmHg 78%
    10:00 +21°C° 0.2 mm 1 mps 588 mmHg 69%
    11:00 +22°C° 0.4 mm 1 mps 587 mmHg 63%
    12:00 +23°C° 0.4 mm 2 mps 587 mmHg 57%
    13:00 +24°C° 0.4 mm 2 mps 587 mmHg 51%
    14:00 +24°C° 0.4 mm 2 mps 586 mmHg 54%
    15:00 +23°C° 0.4 mm 2 mps 586 mmHg 58%
    16:00 +21°C° 0.4 mm 2 mps 585 mmHg 61%
    17:00 +20°C° 0.6 mm 1 mps 584 mmHg 72%
    18:00 +18°C° 0.6 mm 1 mps 584 mmHg 83%
    19:00 +14°C° 0.6 mm 1 mps 583 mmHg 93%
    20:00 +14°C° 0.2 mm 1 mps 583 mmHg 93%
    21:00 +14°C° 0.2 mm 1 mps 584 mmHg 93%
    22:00 +13°C° 0.2 mm 1 mps 584 mmHg 93%
    23:00 +13°C° 0.1 mm 1 mps 584 mmHg 93%
    Show more